Location: Fredericton
(45.9636°N, 66.6431°W)
Time: 21:30:31
(UTC-04:00)

ISS - Pass Details

Date: 28 October 2021
Orbit: 417 x 422 km, 51.6° (Epoch: 07 December)

Event Time Altitude Azimuth Distance (km) Brightness Sun altitude
Exits shadow 05:18:38 18° 69° (ENE) 1,104 -0.9 -28.8°
Drops below altitude 10° 05:19:37 10° 66° (ENE) 1,501 -0.1 -28.6°
Sets 05:21:44 0° 63° (ENE) 2,366 1.2 -28.3°
